owner,sensor,date,latitude,longitude,vertical_datum,mass_concentration_of_oxygen_in_sea_water,qcFlag 
SCCF RECON,ioos:station:SCCF:11:1,2017-12-01T05:00:00Z,26.4679,-82.0631,2.171,6.3,1111122 
SCCF RECON,ioos:station:SCCF:11:1,2017-12-01T06:00:00Z,26.4679,-82.0631,2.007,6.34,1111122 
SCCF RECON,ioos:station:SCCF:11:1,2017-12-01T07:00:00Z,26.4679,-82.0631,1.84,6.19,1111122 
SCCF RECON,ioos:station:SCCF:11:1,2017-12-01T08:00:00Z,26.4679,-82.0631,1.696,6.04,1111122 
SCCF RECON,ioos:station:SCCF:11:1,2017-12-01T09:00:00Z,26.4679,-82.0631,1.561,5.92,1111122 
SCCF RECON,ioos:station:SCCF:11:1,2017-12-01T10:00:00Z,26.4679,-82.0631,1.454,5.95,1111122 
SCCF RECON,ioos:station:SCCF:11:1,2017-12-01T11:00:00Z,26.4679,-82.0631,1.467,6.09,1111122 
SCCF RECON,ioos:station:SCCF:11:1,2017-12-01T12:00:00Z,26.4679,-82.0631,1.628,6.0,1111122 
SCCF RECON,ioos:station:SCCF:11:1,2017-12-01T13:00:00Z,26.4679,-82.0631,1.82,6.32,1111122 
SCCF RECON,ioos:station:SCCF:11:1,2017-12-01T14:00:00Z,26.4679,-82.0631,1.95,6.34,1111122 
SCCF RECON,ioos:station:SCCF:11:1,2017-12-01T15:00:00Z,26.4679,-82.0631,2.06,6.35,1111122 
SCCF RECON,ioos:station:SCCF:11:1,2017-12-01T16:00:00Z,26.4679,-82.0631,2.135,6.25,1111122 
SCCF RECON,ioos:station:SCCF:11:1,2017-12-01T17:00:00Z,26.4679,-82.0631,2.13,6.3,1111122 
SCCF RECON,ioos:station:SCCF:11:1,2017-12-01T18:00:00Z,26.4679,-82.0631,2.05,6.42,1111122 
SCCF RECON,ioos:station:SCCF:11:1,2017-12-01T19:00:00Z,26.4679,-82.0631,1.96,6.77,1111122 
SCCF RECON,ioos:station:SCCF:11:1,2017-12-01T20:00:00Z,26.4679,-82.0631,1.88,7.02,1111122 
SCCF RECON,ioos:station:SCCF:11:1,2017-12-01T21:00:00Z,26.4679,-82.0631,1.832,7.17,1111122 
SCCF RECON,ioos:station:SCCF:11:1,2017-12-01T22:00:00Z,26.4679,-82.0631,1.81,6.91,1111122 
SCCF RECON,ioos:station:SCCF:11:1,2017-12-02T05:00:00Z,26.4679,-82.0631,2.33,5.75,1111122 
SCCF RECON,ioos:station:SCCF:11:1,2017-12-02T06:00:00Z,26.4679,-82.0631,2.18,6.49,1111122 
SCCF RECON,ioos:station:SCCF:11:1,2017-12-02T07:00:00Z,26.4679,-82.0631,1.986,6.13,1111122 
SCCF RECON,ioos:station:SCCF:11:1,2017-12-02T08:00:00Z,26.4679,-82.0631,1.811,5.97,1111122 
SCCF RECON,ioos:station:SCCF:11:1,2017-12-02T09:00:00Z,26.4679,-82.0631,1.651,5.8,1111122 
SCCF RECON,ioos:station:SCCF:11:1,2017-12-02T10:00:00Z,26.4679,-82.0631,1.499,5.79,1111122 
SCCF RECON,ioos:station:SCCF:11:1,2017-12-02T11:00:00Z,26.4679,-82.0631,1.421,5.79,1111122 
SCCF RECON,ioos:station:SCCF:11:1,2017-12-02T12:00:00Z,26.4679,-82.0631,1.487,5.93,1111122 
SCCF RECON,ioos:station:SCCF:11:1,2017-12-02T13:00:00Z,26.4679,-82.0631,1.677,6.01,1111122 
SCCF RECON,ioos:station:SCCF:11:1,2017-12-02T14:00:00Z,26.4679,-82.0631,1.869,6.28,1111122 
SCCF RECON,ioos:station:SCCF:11:1,2017-12-02T15:00:00Z,26.4679,-82.0631,2.01,6.17,1111122 
SCCF RECON,ioos:station:SCCF:11:1,2017-12-02T16:00:00Z,26.4679,-82.0631,2.131,6.21,1111122 
SCCF RECON,ioos:station:SCCF:11:1,2017-12-02T17:00:00Z,26.4679,-82.0631,2.2,6.05,1111122 
SCCF RECON,ioos:station:SCCF:11:1,2017-12-02T18:00:00Z,26.4679,-82.0631,2.17,5.99,1111122 
SCCF RECON,ioos:station:SCCF:11:1,2017-12-02T19:00:00Z,26.4679,-82.0631,2.087,6.25,1111122 
SCCF RECON,ioos:station:SCCF:11:1,2017-12-02T20:00:00Z,26.4679,-82.0631,1.981,6.91,1111122 
SCCF RECON,ioos:station:SCCF:11:1,2017-12-02T21:00:00Z,26.4679,-82.0631,1.918,6.66,1111122 
SCCF RECON,ioos:station:SCCF:11:1,2017-12-02T22:00:00Z,26.4679,-82.0631,1.876,6.46,1111122 
SCCF RECON,ioos:station:SCCF:11:1,2017-12-03T05:00:00Z,26.4679,-82.0631,2.42,5.59,1111122 
SCCF RECON,ioos:station:SCCF:11:1,2017-12-03T06:00:00Z,26.4679,-82.0631,2.33,5.83,1111122 
SCCF RECON,ioos:station:SCCF:11:1,2017-12-03T07:00:00Z,26.4679,-82.0631,2.135,6.24,1111122 
SCCF RECON,ioos:station:SCCF:11:1,2017-12-03T08:00:00Z,26.4679,-82.0631,1.952,5.95,1111122 
SCCF RECON,ioos:station:SCCF:11:1,2017-12-03T09:00:00Z,26.4679,-82.0631,1.776,5.76,1111122 
SCCF RECON,ioos:station:SCCF:11:1,2017-12-03T10:00:00Z,26.4679,-82.0631,1.61,5.45,1111122 
SCCF RECON,ioos:station:SCCF:11:1,2017-12-03T11:00:00Z,26.4679,-82.0631,1.471,5.45,1111122 
SCCF RECON,ioos:station:SCCF:11:1,2017-12-03T12:00:00Z,26.4679,-82.0631,1.4,5.5,1111122 
SCCF RECON,ioos:station:SCCF:11:1,2017-12-03T13:00:00Z,26.4679,-82.0631,1.484,5.61,1111122 
SCCF RECON,ioos:station:SCCF:11:1,2017-12-03T14:00:00Z,26.4679,-82.0631,1.701,5.63,1111122 
SCCF RECON,ioos:station:SCCF:11:1,2017-12-03T15:00:00Z,26.4679,-82.0631,1.9,6.07,1111122 
SCCF RECON,ioos:station:SCCF:11:1,2017-12-03T16:00:00Z,26.4679,-82.0631,2.044,6.06,1111122 
SCCF RECON,ioos:station:SCCF:11:1,2017-12-03T17:00:00Z,26.4679,-82.0631,2.153,6.02,1111122 
SCCF RECON,ioos:station:SCCF:11:1,2017-12-03T18:00:00Z,26.4679,-82.0631,2.22,5.95,1111122 
SCCF RECON,ioos:station:SCCF:11:1,2017-12-03T19:00:00Z,26.4679,-82.0631,2.204,5.77,1111122 
SCCF RECON,ioos:station:SCCF:11:1,2017-12-03T20:00:00Z,26.4679,-82.0631,2.111,6.48,1111122 
SCCF RECON,ioos:station:SCCF:11:1,2017-12-03T21:00:00Z,26.4679,-82.0631,2.015,7.06,1111122 
SCCF RECON,ioos:station:SCCF:11:1,2017-12-03T22:00:00Z,26.4679,-82.0631,1.97,6.72,1111122 
SCCF RECON,ioos:station:SCCF:11:1,2017-12-04T05:00:00Z,26.4679,-82.0631,2.42,6.05,1111122 
SCCF RECON,ioos:station:SCCF:11:1,2017-12-04T06:00:00Z,26.4679,-82.0631,2.39,6.14,1111122 
SCCF RECON,ioos:station:SCCF:11:1,2017-12-04T07:00:00Z,26.4679,-82.0631,2.26,6.1,1111122 
SCCF RECON,ioos:station:SCCF:11:1,2017-12-04T08:00:00Z,26.4679,-82.0631,2.061,5.76,1111122 
SCCF RECON,ioos:station:SCCF:11:1,2017-12-04T09:00:00Z,26.4679,-82.0631,1.886,5.61,1111122 
SCCF RECON,ioos:station:SCCF:11:1,2017-12-04T10:00:00Z,26.4679,-82.0631,1.704,5.54,1111122 
SCCF RECON,ioos:station:SCCF:11:1,2017-12-04T11:00:00Z,26.4679,-82.0631,1.541,5.35,1111122 
SCCF RECON,ioos:station:SCCF:11:1,2017-12-04T12:00:00Z,26.4679,-82.0631,1.402,5.18,1111122 
SCCF RECON,ioos:station:SCCF:11:1,2017-12-04T13:00:00Z,26.4679,-82.0631,1.338,5.23,1111122 
SCCF RECON,ioos:station:SCCF:11:1,2017-12-04T14:00:00Z,26.4679,-82.0631,1.449,5.52,1111122 
SCCF RECON,ioos:station:SCCF:11:1,2017-12-04T15:00:00Z,26.4679,-82.0631,1.68,5.79,1111122 
SCCF RECON,ioos:station:SCCF:11:1,2017-12-04T16:00:00Z,26.4679,-82.0631,1.863,6.17,1111122 
SCCF RECON,ioos:station:SCCF:11:1,2017-12-04T17:00:00Z,26.4679,-82.0631,1.99,6.31,1111122 
SCCF RECON,ioos:station:SCCF:11:1,2017-12-04T18:00:00Z,26.4679,-82.0631,2.091,6.28,1111122 
SCCF RECON,ioos:station:SCCF:11:1,2017-12-04T19:00:00Z,26.4679,-82.0631,2.15,6.06,1111122 
SCCF RECON,ioos:station:SCCF:11:1,2017-12-04T20:00:00Z,26.4679,-82.0631,2.143,6.02,1111122 
SCCF RECON,ioos:station:SCCF:11:1,2017-12-04T21:00:00Z,26.4679,-82.0631,2.083,6.03,1111122 
SCCF RECON,ioos:station:SCCF:11:1,2017-12-04T22:00:00Z,26.4679,-82.0631,2.021,6.71,1111122 
SCCF RECON,ioos:station:SCCF:11:1,2017-12-05T05:00:00Z,26.4679,-82.0631,2.44,5.59,1111122 
SCCF RECON,ioos:station:SCCF:11:1,2017-12-05T06:00:00Z,26.4679,-82.0631,2.45,5.66,1111122 
SCCF RECON,ioos:station:SCCF:11:1,2017-12-05T07:00:00Z,26.4679,-82.0631,2.4,5.42,1111122 
SCCF RECON,ioos:station:SCCF:11:1,2017-12-05T08:00:00Z,26.4679,-82.0631,2.26,6.15,1111122 
SCCF RECON,ioos:station:SCCF:11:1,2017-12-05T09:00:00Z,26.4679,-82.0631,2.073,6.0,1111122 
SCCF RECON,ioos:station:SCCF:11:1,2017-12-05T10:00:00Z,26.4679,-82.0631,1.9,5.98,1111122 
SCCF RECON,ioos:station:SCCF:11:1,2017-12-05T11:00:00Z,26.4679,-82.0631,1.736,5.82,1111122 
SCCF RECON,ioos:station:SCCF:11:1,2017-12-05T12:00:00Z,26.4679,-82.0631,1.574,5.47,1111122 
SCCF RECON,ioos:station:SCCF:11:1,2017-12-05T13:00:00Z,26.4679,-82.0631,1.444,5.42,1111122 
SCCF RECON,ioos:station:SCCF:11:1,2017-12-05T14:00:00Z,26.4679,-82.0631,1.417,5.67,1111122 
SCCF RECON,ioos:station:SCCF:11:1,2017-12-05T15:00:00Z,26.4679,-82.0631,1.551,5.86,1111122 
SCCF RECON,ioos:station:SCCF:11:1,2017-12-05T16:00:00Z,26.4679,-82.0631,1.761,6.09,1111122 
SCCF RECON,ioos:station:SCCF:11:1,2017-12-05T17:00:00Z,26.4679,-82.0631,1.927,6.27,1111122 
SCCF RECON,ioos:station:SCCF:11:1,2017-12-05T18:00:00Z,26.4679,-82.0631,2.027,6.24,1111122 
SCCF RECON,ioos:station:SCCF:11:1,2017-12-05T19:00:00Z,26.4679,-82.0631,2.102,6.19,1111122 
SCCF RECON,ioos:station:SCCF:11:1,2017-12-05T20:00:00Z,26.4679,-82.0631,2.147,6.31,1111122 
SCCF RECON,ioos:station:SCCF:11:1,2017-12-05T21:00:00Z,26.4679,-82.0631,2.117,6.1,1111122 
SCCF RECON,ioos:station:SCCF:11:1,2017-12-05T22:00:00Z,26.4679,-82.0631,2.06,6.14,1111122 
SCCF RECON,ioos:station:SCCF:11:1,2017-12-06T05:00:00Z,26.4679,-82.0631,2.39,6.55,1111122 
SCCF RECON,ioos:station:SCCF:11:1,2017-12-06T06:00:00Z,26.4679,-82.0631,2.41,6.14,1111122 
SCCF RECON,ioos:station:SCCF:11:1,2017-12-06T07:00:00Z,26.4679,-82.0631,2.4,5.98,1111122 
SCCF RECON,ioos:station:SCCF:11:1,2017-12-06T08:00:00Z,26.4679,-82.0631,2.327,5.87,1111122 
SCCF RECON,ioos:station:SCCF:11:1,2017-12-06T09:00:00Z,26.4679,-82.0631,2.189,6.72,1111122 
SCCF RECON,ioos:station:SCCF:11:1,2017-12-06T10:00:00Z,26.4679,-82.0631,2.009,6.42,1111122 
SCCF RECON,ioos:station:SCCF:11:1,2017-12-06T11:00:00Z,26.4679,-82.0631,1.842,6.31,1111122 
SCCF RECON,ioos:station:SCCF:11:1,2017-12-06T12:00:00Z,26.4679,-82.0631,1.682,6.05,1111122 
SCCF RECON,ioos:station:SCCF:11:1,2017-12-06T13:00:00Z,26.4679,-82.0631,1.532,5.88,1111122 
SCCF RECON,ioos:station:SCCF:11:1,2017-12-06T14:00:00Z,26.4679,-82.0631,1.418,5.6,1111122 
SCCF RECON,ioos:station:SCCF:11:1,2017-12-06T15:00:00Z,26.4679,-82.0631,1.42,5.83,1111122 
SCCF RECON,ioos:station:SCCF:11:1,2017-12-06T16:00:00Z,26.4679,-82.0631,1.569,6.39,1111122 
SCCF RECON,ioos:station:SCCF:11:1,2017-12-06T17:00:00Z,26.4679,-82.0631,1.78,6.56,1111122 
SCCF RECON,ioos:station:SCCF:11:1,2017-12-06T18:00:00Z,26.4679,-82.0631,1.91,6.6,1111122 
SCCF RECON,ioos:station:SCCF:11:1,2017-12-06T19:00:00Z,26.4679,-82.0631,2.005,6.67,1111122 
SCCF RECON,ioos:station:SCCF:11:1,2017-12-06T20:00:00Z,26.4679,-82.0631,2.083,6.56,1111122 
SCCF RECON,ioos:station:SCCF:11:1,2017-12-06T21:00:00Z,26.4679,-82.0631,2.132,6.47,1111122 
SCCF RECON,ioos:station:SCCF:11:1,2017-12-06T22:00:00Z,26.4679,-82.0631,2.1,6.47,1111122 
SCCF RECON,ioos:station:SCCF:11:1,2017-12-07T05:00:00Z,26.4679,-82.0631,2.23,6.38,1111122 
SCCF RECON,ioos:station:SCCF:11:1,2017-12-07T06:00:00Z,26.4679,-82.0631,2.276,6.49,1111122 
SCCF RECON,ioos:station:SCCF:11:1,2017-12-07T07:00:00Z,26.4679,-82.0631,2.27,6.17,1111122 
SCCF RECON,ioos:station:SCCF:11:1,2017-12-07T08:00:00Z,26.4679,-82.0631,2.279,6.04,1111122 
SCCF RECON,ioos:station:SCCF:11:1,2017-12-07T09:00:00Z,26.4679,-82.0631,2.24,5.94,1111122 
SCCF RECON,ioos:station:SCCF:11:1,2017-12-07T10:00:00Z,26.4679,-82.0631,2.139,6.07,1111122 
SCCF RECON,ioos:station:SCCF:11:1,2017-12-07T11:00:00Z,26.4679,-82.0631,1.959,6.16,1111122 
SCCF RECON,ioos:station:SCCF:11:1,2017-12-07T12:00:00Z,26.4679,-82.0631,1.777,6.0,1111122 
SCCF RECON,ioos:station:SCCF:11:1,2017-12-07T13:00:00Z,26.4679,-82.0631,1.629,5.8,1111122 
SCCF RECON,ioos:station:SCCF:11:1,2017-12-07T14:00:00Z,26.4679,-82.0631,1.502,5.97,1111122 
SCCF RECON,ioos:station:SCCF:11:1,2017-12-07T15:00:00Z,26.4679,-82.0631,1.418,6.16,1111122 
SCCF RECON,ioos:station:SCCF:11:1,2017-12-07T16:00:00Z,26.4679,-82.0631,1.42,5.82,1111122 
SCCF RECON,ioos:station:SCCF:11:1,2017-12-07T17:00:00Z,26.4679,-82.0631,1.58,6.92,1111122 
SCCF RECON,ioos:station:SCCF:11:1,2017-12-07T18:00:00Z,26.4679,-82.0631,1.761,6.68,1111122 
SCCF RECON,ioos:station:SCCF:11:1,2017-12-07T19:00:00Z,26.4679,-82.0631,1.889,6.98,1111122 
SCCF RECON,ioos:station:SCCF:11:1,2017-12-07T20:00:00Z,26.4679,-82.0631,1.985,6.77,1111122 
SCCF RECON,ioos:station:SCCF:11:1,2017-12-07T22:00:00Z,26.4679,-82.0631,2.086,6.72,1111122 
SCCF RECON,ioos:station:SCCF:11:1,2017-12-08T05:00:00Z,26.4679,-82.0631,2.092,6.38,1111122 
SCCF RECON,ioos:station:SCCF:11:1,2017-12-08T06:00:00Z,26.4679,-82.0631,2.18,6.34,1111122 
SCCF RECON,ioos:station:SCCF:11:1,2017-12-08T07:00:00Z,26.4679,-82.0631,2.232,6.37,1111122 
SCCF RECON,ioos:station:SCCF:11:1,2017-12-08T08:00:00Z,26.4679,-82.0631,2.27,6.21,1111122 
SCCF RECON,ioos:station:SCCF:11:1,2017-12-08T09:00:00Z,26.4679,-82.0631,2.27,6.14,1111122 
SCCF RECON,ioos:station:SCCF:11:1,2017-12-08T10:00:00Z,26.4679,-82.0631,2.23,5.91,1111122 
SCCF RECON,ioos:station:SCCF:11:1,2017-12-08T11:00:00Z,26.4679,-82.0631,2.14,6.06,1111122 
SCCF RECON,ioos:station:SCCF:11:1,2017-12-08T12:00:00Z,26.4679,-82.0631,1.97,6.3,1111122 
SCCF RECON,ioos:station:SCCF:11:1,2017-12-08T13:00:00Z,26.4679,-82.0631,1.826,6.1,1111122 
SCCF RECON,ioos:station:SCCF:11:1,2017-12-08T14:00:00Z,26.4679,-82.0631,1.71,6.2,1111122 
SCCF RECON,ioos:station:SCCF:11:1,2017-12-08T15:00:00Z,26.4679,-82.0631,1.585,6.16,1111122 
SCCF RECON,ioos:station:SCCF:11:1,2017-12-08T16:00:00Z,26.4679,-82.0631,1.518,6.49,1111122 
SCCF RECON,ioos:station:SCCF:11:1,2017-12-08T17:00:00Z,26.4679,-82.0631,1.56,6.57,1111122 
SCCF RECON,ioos:station:SCCF:11:1,2017-12-08T18:00:00Z,26.4679,-82.0631,1.7,6.48,1111122 
SCCF RECON,ioos:station:SCCF:11:1,2017-12-08T19:00:00Z,26.4679,-82.0631,1.83,7.12,1111122 
SCCF RECON,ioos:station:SCCF:11:1,2017-12-08T20:00:00Z,26.4679,-82.0631,1.92,7.0,1111122 
SCCF RECON,ioos:station:SCCF:11:1,2017-12-08T21:00:00Z,26.4679,-82.0631,2.021,6.86,1111122 
SCCF RECON,ioos:station:SCCF:11:1,2017-12-08T22:00:00Z,26.4679,-82.0631,2.094,6.89,1111122 
SCCF RECON,ioos:station:SCCF:11:1,2017-12-09T05:00:00Z,26.4679,-82.0631,2.03,6.11,1111122 
SCCF RECON,ioos:station:SCCF:11:1,2017-12-09T06:00:00Z,26.4679,-82.0631,2.16,6.14,1111122 
SCCF RECON,ioos:station:SCCF:11:1,2017-12-09T07:00:00Z,26.4679,-82.0631,2.228,6.07,1111122 
SCCF RECON,ioos:station:SCCF:11:1,2017-12-09T08:00:00Z,26.4679,-82.0631,2.26,6.07,1111122 
SCCF RECON,ioos:station:SCCF:11:1,2017-12-09T09:00:00Z,26.4679,-82.0631,2.31,6.0,1111122 
SCCF RECON,ioos:station:SCCF:11:1,2017-12-09T10:00:00Z,26.4679,-82.0631,2.358,6.13,1111122 
SCCF RECON,ioos:station:SCCF:11:1,2017-12-09T11:00:00Z,26.4679,-82.0631,2.327,6.01,1111122 
SCCF RECON,ioos:station:SCCF:11:1,2017-12-09T12:00:00Z,26.4679,-82.0631,2.238,6.17,1111122 
SCCF RECON,ioos:station:SCCF:11:1,2017-12-09T13:00:00Z,26.4679,-82.0631,2.1,6.0,1111122 
SCCF RECON,ioos:station:SCCF:11:1,2017-12-09T14:00:00Z,26.4679,-82.0631,1.954,5.85,1111122 
SCCF RECON,ioos:station:SCCF:11:1,2017-12-09T15:00:00Z,26.4679,-82.0631,1.781,5.56,1111122 
SCCF RECON,ioos:station:SCCF:11:1,2017-12-09T16:00:00Z,26.4679,-82.0631,1.63,5.62,1111122 
SCCF RECON,ioos:station:SCCF:11:1,2017-12-09T17:00:00Z,26.4679,-82.0631,1.518,5.7,1111122 
SCCF RECON,ioos:station:SCCF:11:1,2017-12-09T18:00:00Z,26.4679,-82.0631,1.549,5.84,1111122 
SCCF RECON,ioos:station:SCCF:11:1,2017-12-09T19:00:00Z,26.4679,-82.0631,1.7,6.41,1111122 
SCCF RECON,ioos:station:SCCF:11:1,2017-12-09T20:00:00Z,26.4679,-82.0631,1.836,6.27,1111122 
SCCF RECON,ioos:station:SCCF:11:1,2017-12-09T21:00:00Z,26.4679,-82.0631,1.844,6.4,1111122 
SCCF RECON,ioos:station:SCCF:11:1,2017-12-09T22:00:00Z,26.4679,-82.0631,1.84,6.45,1111122 
SCCF RECON,ioos:station:SCCF:11:1,2017-12-10T05:00:00Z,26.4679,-82.0631,1.642,6.27,1111122 
SCCF RECON,ioos:station:SCCF:11:1,2017-12-10T06:00:00Z,26.4679,-82.0631,1.589,6.22,1111122 
SCCF RECON,ioos:station:SCCF:11:1,2017-12-10T07:00:00Z,26.4679,-82.0631,1.611,6.37,1111122 
SCCF RECON,ioos:station:SCCF:11:1,2017-12-10T08:00:00Z,26.4679,-82.0631,1.694,6.35,1111122 
SCCF RECON,ioos:station:SCCF:11:1,2017-12-10T09:00:00Z,26.4679,-82.0631,1.759,6.41,1111122 
SCCF RECON,ioos:station:SCCF:11:1,2017-12-10T10:00:00Z,26.4679,-82.0631,1.781,6.42,1111122 
SCCF RECON,ioos:station:SCCF:11:1,2017-12-10T11:00:00Z,26.4679,-82.0631,1.797,6.4,1111122 
SCCF RECON,ioos:station:SCCF:11:1,2017-12-10T12:00:00Z,26.4679,-82.0631,1.806,6.5,1111122 
SCCF RECON,ioos:station:SCCF:11:1,2017-12-10T13:00:00Z,26.4679,-82.0631,1.812,6.6,1111122 
SCCF RECON,ioos:station:SCCF:11:1,2017-12-10T14:00:00Z,26.4679,-82.0631,1.754,6.72,1111122 
SCCF RECON,ioos:station:SCCF:11:1,2017-12-10T15:00:00Z,26.4679,-82.0631,1.669,6.83,1111122 
SCCF RECON,ioos:station:SCCF:11:1,2017-12-10T16:00:00Z,26.4679,-82.0631,1.601,6.95,1111122 
SCCF RECON,ioos:station:SCCF:11:1,2017-12-10T17:00:00Z,26.4679,-82.0631,1.539,7.11,1111122 
SCCF RECON,ioos:station:SCCF:11:1,2017-12-10T18:00:00Z,26.4679,-82.0631,1.507,7.5,1111122 
SCCF RECON,ioos:station:SCCF:11:1,2017-12-10T19:00:00Z,26.4679,-82.0631,1.518,7.65,1111122 
SCCF RECON,ioos:station:SCCF:11:1,2017-12-10T20:00:00Z,26.4679,-82.0631,1.622,8.3,1111122 
SCCF RECON,ioos:station:SCCF:11:1,2017-12-10T21:00:00Z,26.4679,-82.0631,1.761,8.35,1111122 
SCCF RECON,ioos:station:SCCF:11:1,2017-12-10T22:00:00Z,26.4679,-82.0631,1.878,8.05,1111122 
SCCF RECON,ioos:station:SCCF:11:1,2017-12-11T05:00:00Z,26.4679,-82.0631,1.802,7.78,1111122 
SCCF RECON,ioos:station:SCCF:11:1,2017-12-11T06:00:00Z,26.4679,-82.0631,1.73,7.79,1111122 
SCCF RECON,ioos:station:SCCF:11:1,2017-12-11T07:00:00Z,26.4679,-82.0631,1.677,7.73,1111122 
SCCF RECON,ioos:station:SCCF:11:1,2017-12-11T08:00:00Z,26.4679,-82.0631,1.685,7.59,1111122 
SCCF RECON,ioos:station:SCCF:11:1,2017-12-11T09:00:00Z,26.4679,-82.0631,1.74,7.49,1111122 
SCCF RECON,ioos:station:SCCF:11:1,2017-12-11T10:00:00Z,26.4679,-82.0631,1.81,7.3,1111122 
SCCF RECON,ioos:station:SCCF:11:1,2017-12-11T11:00:00Z,26.4679,-82.0631,1.872,7.43,1111122 
SCCF RECON,ioos:station:SCCF:11:1,2017-12-11T12:00:00Z,26.4679,-82.0631,1.923,7.42,1111122 
SCCF RECON,ioos:station:SCCF:11:1,2017-12-11T13:00:00Z,26.4679,-82.0631,1.94,7.35,1111122 
SCCF RECON,ioos:station:SCCF:11:1,2017-12-11T14:00:00Z,26.4679,-82.0631,1.907,7.48,1111122 
SCCF RECON,ioos:station:SCCF:11:1,2017-12-11T15:00:00Z,26.4679,-82.0631,1.828,7.51,1111122 
SCCF RECON,ioos:station:SCCF:11:1,2017-12-11T16:00:00Z,26.4679,-82.0631,1.75,7.96,1111122 
SCCF RECON,ioos:station:SCCF:11:1,2017-12-11T17:00:00Z,26.4679,-82.0631,1.678,8.39,1111122 
SCCF RECON,ioos:station:SCCF:11:1,2017-12-11T18:00:00Z,26.4679,-82.0631,1.605,8.66,1111122 
SCCF RECON,ioos:station:SCCF:11:1,2017-12-11T19:00:00Z,26.4679,-82.0631,1.572,9.04,1111122 
SCCF RECON,ioos:station:SCCF:11:1,2017-12-11T20:00:00Z,26.4679,-82.0631,1.615,9.18,1111122 
SCCF RECON,ioos:station:SCCF:11:1,2017-12-11T21:00:00Z,26.4679,-82.0631,1.719,9.28,1111122 
SCCF RECON,ioos:station:SCCF:11:1,2017-12-11T22:00:00Z,26.4679,-82.0631,1.85,8.62,1111122 
SCCF RECON,ioos:station:SCCF:11:1,2017-12-12T05:00:00Z,26.4679,-82.0631,1.901,8.31,1111122 
SCCF RECON,ioos:station:SCCF:11:1,2017-12-12T06:00:00Z,26.4679,-82.0631,1.81,8.26,1111122 
SCCF RECON,ioos:station:SCCF:11:1,2017-12-12T07:00:00Z,26.4679,-82.0631,1.732,8.36,1111122 
SCCF RECON,ioos:station:SCCF:11:1,2017-12-12T08:00:00Z,26.4679,-82.0631,1.7,8.23,1111122 
SCCF RECON,ioos:station:SCCF:11:1,2017-12-12T09:00:00Z,26.4679,-82.0631,1.74,8.12,1111122 
SCCF RECON,ioos:station:SCCF:11:1,2017-12-12T10:00:00Z,26.4679,-82.0631,1.85,7.82,1111122 
SCCF RECON,ioos:station:SCCF:11:1,2017-12-12T11:00:00Z,26.4679,-82.0631,1.95,7.58,1111122 
SCCF RECON,ioos:station:SCCF:11:1,2017-12-12T12:00:00Z,26.4679,-82.0631,2.019,7.33,1111122 
SCCF RECON,ioos:station:SCCF:11:1,2017-12-12T13:00:00Z,26.4679,-82.0631,2.08,7.14,1111122 
SCCF RECON,ioos:station:SCCF:11:1,2017-12-12T14:00:00Z,26.4679,-82.0631,2.13,6.87,1111122 
SCCF RECON,ioos:station:SCCF:11:1,2017-12-12T15:00:00Z,26.4679,-82.0631,2.14,6.76,1111122 
SCCF RECON,ioos:station:SCCF:11:1,2017-12-12T16:00:00Z,26.4679,-82.0631,2.115,6.82,1111122 
SCCF RECON,ioos:station:SCCF:11:1,2017-12-12T17:00:00Z,26.4679,-82.0631,2.021,8.2,1111122 
SCCF RECON,ioos:station:SCCF:11:1,2017-12-12T18:00:00Z,26.4679,-82.0631,1.916,8.68,1111122 
SCCF RECON,ioos:station:SCCF:11:1,2017-12-12T20:00:00Z,26.4679,-82.0631,1.873,9.15,1111122 
SCCF RECON,ioos:station:SCCF:11:1,2017-12-12T21:00:00Z,26.4679,-82.0631,1.914,9.39,1111122 
SCCF RECON,ioos:station:SCCF:11:1,2017-12-12T22:00:00Z,26.4679,-82.0631,1.966,9.3,1111122 
SCCF RECON,ioos:station:SCCF:11:1,2017-12-13T09:00:00Z,26.4679,-82.0631,1.536,7.56,1111122 
SCCF RECON,ioos:station:SCCF:11:1,2017-12-13T10:00:00Z,26.4679,-82.0631,1.53,7.66,1111122 
SCCF RECON,ioos:station:SCCF:11:1,2017-12-13T11:00:00Z,26.4679,-82.0631,1.609,7.63,1111122 
SCCF RECON,ioos:station:SCCF:11:1,2017-12-13T12:00:00Z,26.4679,-82.0631,1.726,7.54,1111122 
SCCF RECON,ioos:station:SCCF:11:1,2017-12-13T13:00:00Z,26.4679,-82.0631,1.818,7.55,1111122 
SCCF RECON,ioos:station:SCCF:11:1,2017-12-13T14:00:00Z,26.4679,-82.0631,1.893,7.55,1111122 
SCCF RECON,ioos:station:SCCF:11:1,2017-12-13T17:00:00Z,26.4679,-82.0631,1.93,7.87,1111122 
SCCF RECON,ioos:station:SCCF:11:1,2017-12-13T18:00:00Z,26.4679,-82.0631,1.865,7.87,1111122 
SCCF RECON,ioos:station:SCCF:11:1,2017-12-13T19:00:00Z,26.4679,-82.0631,1.8,8.37,1111122 
SCCF RECON,ioos:station:SCCF:11:1,2017-12-13T20:00:00Z,26.4679,-82.0631,1.792,8.68,1111122 
SCCF RECON,ioos:station:SCCF:11:1,2017-12-13T21:00:00Z,26.4679,-82.0631,1.831,8.94,1111122 
SCCF RECON,ioos:station:SCCF:11:1,2017-12-13T22:00:00Z,26.4679,-82.0631,1.897,8.83,1111122 
SCCF RECON,ioos:station:SCCF:11:1,2017-12-14T11:00:00Z,26.4679,-82.0631,1.65,7.4,1111122 
SCCF RECON,ioos:station:SCCF:11:1,2017-12-14T12:00:00Z,26.4679,-82.0631,1.782,7.57,1111122 
SCCF RECON,ioos:station:SCCF:11:1,2017-12-14T13:00:00Z,26.4679,-82.0631,1.908,7.64,1111122 
SCCF RECON,ioos:station:SCCF:11:1,2017-12-14T14:00:00Z,26.4679,-82.0631,1.979,7.55,1111122 
SCCF RECON,ioos:station:SCCF:11:1,2017-12-14T15:00:00Z,26.4679,-82.0631,2.048,7.48,1111122 
SCCF RECON,ioos:station:SCCF:11:1,2017-12-14T16:00:00Z,26.4679,-82.0631,2.09,7.76,1111122 
SCCF RECON,ioos:station:SCCF:11:1,2017-12-14T17:00:00Z,26.4679,-82.0631,2.096,7.31,1111122 
SCCF RECON,ioos:station:SCCF:11:1,2017-12-14T18:00:00Z,26.4679,-82.0631,2.051,7.44,1111122 
SCCF RECON,ioos:station:SCCF:11:1,2017-12-14T19:00:00Z,26.4679,-82.0631,1.982,7.7,1111122 
SCCF RECON,ioos:station:SCCF:11:1,2017-12-14T20:00:00Z,26.4679,-82.0631,1.93,7.23,1111122 
SCCF RECON,ioos:station:SCCF:11:1,2017-12-14T21:00:00Z,26.4679,-82.0631,1.918,7.93,1111122 
SCCF RECON,ioos:station:SCCF:11:1,2017-12-14T22:00:00Z,26.4679,-82.0631,1.911,7.31,1111122 
SCCF RECON,ioos:station:SCCF:11:1,2017-12-15T05:00:00Z,26.4679,-82.0631,2.269,6.97,1111122 
SCCF RECON,ioos:station:SCCF:11:1,2017-12-15T06:00:00Z,26.4679,-82.0631,2.14,7.66,1111122 
SCCF RECON,ioos:station:SCCF:11:1,2017-12-15T07:00:00Z,26.4679,-82.0631,1.974,7.48,1111122 
SCCF RECON,ioos:station:SCCF:11:1,2017-12-15T08:00:00Z,26.4679,-82.0631,1.842,7.41,1111122 
SCCF RECON,ioos:station:SCCF:11:1,2017-12-15T09:00:00Z,26.4679,-82.0631,1.711,7.41,1111122 
SCCF RECON,ioos:station:SCCF:11:1,2017-12-15T10:00:00Z,26.4679,-82.0631,1.611,7.25,1111122 
SCCF RECON,ioos:station:SCCF:11:1,2017-12-15T11:00:00Z,26.4679,-82.0631,1.58,7.05,1111122 
SCCF RECON,ioos:station:SCCF:11:1,2017-12-15T12:00:00Z,26.4679,-82.0631,1.663,6.97,1111122 
SCCF RECON,ioos:station:SCCF:11:1,2017-12-15T13:00:00Z,26.4679,-82.0631,1.832,6.89,1111122 
SCCF RECON,ioos:station:SCCF:11:1,2017-12-15T14:00:00Z,26.4679,-82.0631,1.95,7.19,1111122 
SCCF RECON,ioos:station:SCCF:11:1,2017-12-15T15:00:00Z,26.4679,-82.0631,2.036,7.22,1111122 
SCCF RECON,ioos:station:SCCF:11:1,2017-12-15T16:00:00Z,26.4679,-82.0631,2.111,7.33,1111122 
SCCF RECON,ioos:station:SCCF:11:1,2017-12-15T17:00:00Z,26.4679,-82.0631,2.147,7.22,1111122 
SCCF RECON,ioos:station:SCCF:11:1,2017-12-15T18:00:00Z,26.4679,-82.0631,2.1,7.15,1111122 
SCCF RECON,ioos:station:SCCF:11:1,2017-12-15T19:00:00Z,26.4679,-82.0631,2.027,7.55,1111122 
SCCF RECON,ioos:station:SCCF:11:1,2017-12-15T20:00:00Z,26.4679,-82.0631,1.968,7.5,1111122 
SCCF RECON,ioos:station:SCCF:11:1,2017-12-15T21:00:00Z,26.4679,-82.0631,1.947,7.41,1111122 
SCCF RECON,ioos:station:SCCF:11:1,2017-12-15T22:00:00Z,26.4679,-82.0631,1.925,7.31,1111122 
SCCF RECON,ioos:station:SCCF:11:1,2017-12-16T05:00:00Z,26.4679,-82.0631,2.214,7.63,1111122 
SCCF RECON,ioos:station:SCCF:11:1,2017-12-16T06:00:00Z,26.4679,-82.0631,2.083,7.46,1111122 
SCCF RECON,ioos:station:SCCF:11:1,2017-12-16T07:00:00Z,26.4679,-82.0631,1.932,7.23,1111122 
SCCF RECON,ioos:station:SCCF:11:1,2017-12-16T08:00:00Z,26.4679,-82.0631,1.789,7.14,1111122 
SCCF RECON,ioos:station:SCCF:11:1,2017-12-16T09:00:00Z,26.4679,-82.0631,1.659,7.02,1111122 